When you browse on this site, cookies collect data to enhance your experience and personalize the content and advertising you see.
Visit our Privacy Policy to learn more. By continuing to use the site, you agree to this use of cookies and data.
  • In Austria
  • List of Countries
  • For 7 days
  • Water Temperature
  • Weather Map
  • News
  • Weather Widgets
  • user-avatar
    Login

    Hourly Weather Chhunchhon

    Today, 5 April, Sunday

    Time Temperature Precipitation Wind Pressure Humidity
    00:00 +2°C° 0 mm 0 mps 751 mmHg 47%
    01:00 +1°C° 0 mm 0 mps 751 mmHg 47%
    02:00 +1°C° 0 mm 0 mps 751 mmHg 47%
    03:00 0°C° 0 mm 0 mps 751 mmHg 47%
    04:00 0°C° 0 mm 0 mps 751 mmHg 47%
    05:00 0°C° 0 mm 0 mps 751 mmHg 47%
    06:00 -1°C° 0 mm 0 mps 751 mmHg 47%
    07:00 +2°C° 0 mm 0 mps 751 mmHg 40%
    08:00 +4°C° 0 mm 0 mps 751 mmHg 33%
    09:00 +8°C° 0 mm 0 mps 752 mmHg 26%
    10:00 +10°C° 0 mm 1 mps 752 mmHg 24%
    11:00 +11°C° 0 mm 1 mps 751 mmHg 22%
    12:00 +12°C° 0 mm 2 mps 751 mmHg 19%
    13:00 +13°C° 0 mm 2 mps 751 mmHg 19%
    14:00 +13°C° 0 mm 2 mps 750 mmHg 18%
    15:00 +14°C° 0 mm 2 mps 750 mmHg 18%
    16:00 +13°C° 0 mm 2 mps 750 mmHg 20%
    17:00 +13°C° 0 mm 2 mps 750 mmHg 22%
    18:00 +12°C° 0 mm 2 mps 750 mmHg 25%
    19:00 +9°C° 0 mm 2 mps 751 mmHg 30%
    20:00 +8°C° 0 mm 1 mps 751 mmHg 35%
    21:00 +7°C° 0 mm 1 mps 751 mmHg 40%
    22:00 +6°C° 0 mm 1 mps 751 mmHg 43%
    23:00 +5°C° 0 mm 1 mps 751 mmHg 46%

    Tomorrow, 6 April, Monday

    Time Temperature Precipitation Wind Pressure Humidity
    00:00 +3°C° 0 mm 0 mps 751 mmHg 49%
    01:00 +3°C° 0 mm 0 mps 751 mmHg 52%
    02:00 +2°C° 0 mm 0 mps 751 mmHg 55%
    03:00 +2°C° 0 mm 0 mps 751 mmHg 58%
    04:00 +1°C° 0 mm 0 mps 751 mmHg 60%
    05:00 +1°C° 0 mm 0 mps 751 mmHg 63%
    06:00 +1°C° 0 mm 0 mps 751 mmHg 65%
    07:00 +3°C° 0 mm 0 mps 751 mmHg 58%
    08:00 +7°C° 0 mm 1 mps 751 mmHg 50%
    09:00 +9°C° 0 mm 1 mps 751 mmHg 43%
    10:00 +11°C° 0 mm 1 mps 751 mmHg 37%
    11:00 +13°C° 0 mm 2 mps 751 mmHg 31%
    12:00 +15°C° 0 mm 2 mps 750 mmHg 25%
    13:00 +15°C° 0 mm 2 mps 750 mmHg 23%
    14:00 +16°C° 0 mm 3 mps 749 mmHg 22%
    15:00 +17°C° 0 mm 3 mps 749 mmHg 20%
    16:00 +16°C° 0 mm 3 mps 748 mmHg 24%
    17:00 +14°C° 0 mm 3 mps 748 mmHg 29%
    18:00 +14°C° 0 mm 2 mps 748 mmHg 33%
    19:00 +12°C° 0 mm 2 mps 748 mmHg 38%
    20:00 +10°C° 0 mm 2 mps 749 mmHg 43%
    21:00 +9°C° 0 mm 1 mps 749 mmHg 49%
    22:00 +8°C° 0 mm 1 mps 749 mmHg 52%
    23:00 +8°C° 0 mm 1 mps 749 mmHg 54%

    Day after tomorrow, 7 April, Tuesday

    Time Temperature Precipitation Wind Pressure Humidity
    00:00 +7°C° 0 mm 1 mps 749 mmHg 57%
    01:00 +7°C° 0 mm 1 mps 748 mmHg 61%
    02:00 +6°C° 0 mm 1 mps 748 mmHg 65%
    03:00 +6°C° 0 mm 1 mps 748 mmHg 68%
    04:00 +5°C° 0 mm 1 mps 747 mmHg 73%
    05:00 +5°C° 0 mm 1 mps 747 mmHg 77%
    06:00 +5°C° 0 mm 1 mps 747 mmHg 81%
    07:00 +7°C° 0 mm 1 mps 747 mmHg 75%
    08:00 +9°C° 0 mm 1 mps 747 mmHg 69%
    09:00 +11°C° 0 mm 1 mps 747 mmHg 63%
    10:00 +12°C° 0 mm 2 mps 746 mmHg 58%
    11:00 +14°C° 0 mm 2 mps 746 mmHg 52%
    12:00 +16°C° 0 mm 3 mps 746 mmHg 47%
    13:00 +15°C° 0 mm 4 mps 746 mmHg 43%
    14:00 +16°C° 0 mm 5 mps 745 mmHg 39%
    15:00 +17°C° 0 mm 5 mps 745 mmHg 35%
    16:00 +16°C° 0 mm 5 mps 745 mmHg 32%
    17:00 +15°C° 0 mm 4 mps 745 mmHg 29%
    18:00 +14°C° 0 mm 4 mps 745 mmHg 25%
    19:00 +12°C° 0 mm 3 mps 746 mmHg 29%
    20:00 +10°C° 0 mm 2 mps 746 mmHg 32%
    21:00 +8°C° 0 mm 1 mps 747 mmHg 36%
    22:00 +8°C° 0 mm 1 mps 747 mmHg 39%
    23:00 +7°C° 0 mm 1 mps 747 mmHg 41%

    8 April, Wednesday

    Time Temperature Precipitation Wind Pressure Humidity
    00:00 +6°C° 0 mm 1 mps 747 mmHg 44%
    01:00 +6°C° 0 mm 1 mps 747 mmHg 46%
    02:00 +5°C° 0 mm 1 mps 747 mmHg 47%
    03:00 +5°C° 0 mm 1 mps 747 mmHg 48%
    04:00 +4°C° 0 mm 1 mps 748 mmHg 49%
    05:00 +4°C° 0 mm 1 mps 748 mmHg 50%
    06:00 +3°C° 0 mm 1 mps 748 mmHg 51%
    07:00 +5°C° 0 mm 1 mps 748 mmHg 44%
    08:00 +6°C° 0 mm 2 mps 749 mmHg 38%
    09:00 +8°C° 0 mm 3 mps 749 mmHg 31%
    10:00 +8°C° 0 mm 4 mps 749 mmHg 27%
    11:00 +9°C° 0 mm 5 mps 749 mmHg 24%
    12:00 +10°C° 0 mm 6 mps 749 mmHg 20%
    13:00 +11°C° 0 mm 6 mps 749 mmHg 20%
    14:00 +11°C° 0 mm 6 mps 749 mmHg 20%
    15:00 +11°C° 0 mm 6 mps 748 mmHg 20%
    16:00 +12°C° 0 mm 5 mps 749 mmHg 22%
    17:00 +10°C° 0 mm 5 mps 749 mmHg 24%
    18:00 +11°C° 0 mm 4 mps 749 mmHg 26%
    19:00 +9°C° 0 mm 3 mps 749 mmHg 31%
    20:00 +7°C° 0 mm 2 mps 750 mmHg 35%
    21:00 +6°C° 0 mm 2 mps 750 mmHg 39%
    22:00 +6°C° 0 mm 1 mps 750 mmHg 42%
    23:00 +6°C° 0 mm 1 mps 751 mmHg 45%

    9 April, Thursday

    Time Temperature Precipitation Wind Pressure Humidity
    00:00 +5°C° 0 mm 1 mps 751 mmHg 48%
    01:00 +5°C° 0 mm 1 mps 751 mmHg 51%
    02:00 +4°C° 0 mm 1 mps 751 mmHg 54%
    03:00 +3°C° 0 mm 1 mps 750 mmHg 57%
    04:00 +2°C° 0 mm 0 mps 751 mmHg 59%
    05:00 +2°C° 0 mm 0 mps 751 mmHg 61%
    06:00 +1°C° 0 mm 0 mps 751 mmHg 64%
    07:00 +5°C° 0 mm 1 mps 751 mmHg 56%
    08:00 +7°C° 0 mm 1 mps 752 mmHg 49%
    09:00 +10°C° 0 mm 1 mps 752 mmHg 41%
    10:00 +10°C° 0 mm 2 mps 752 mmHg 37%
    11:00 +13°C° 0 mm 2 mps 752 mmHg 32%
    12:00 +13°C° 0 mm 3 mps 752 mmHg 27%
    13:00 +14°C° 0 mm 3 mps 752 mmHg 27%
    14:00 +14°C° 0 mm 3 mps 751 mmHg 26%
    15:00 +16°C° 0 mm 3 mps 751 mmHg 26%
    16:00 +14°C° 0 mm 3 mps 751 mmHg 28%
    17:00 +13°C° 0 mm 3 mps 752 mmHg 31%
    18:00 +13°C° 0 mm 3 mps 752 mmHg 33%
    19:00 +12°C° 0 mm 2 mps 752 mmHg 40%
    20:00 +9°C° 0 mm 2 mps 753 mmHg 47%
    21:00 +8°C° 0 mm 1 mps 754 mmHg 54%
    22:00 +8°C° 0 mm 1 mps 754 mmHg 57%
    23:00 +7°C° 0 mm 1 mps 754 mmHg 60%

    10 April, Friday

    Time Temperature Precipitation Wind Pressure Humidity
    00:00 +6°C° 0 mm 1 mps 754 mmHg 63%
    01:00 +6°C° 0 mm 1 mps 753 mmHg 66%
    02:00 +4°C° 0 mm 0 mps 753 mmHg 68%
    03:00 +4°C° 0 mm 0 mps 753 mmHg 71%
    04:00 +3°C° 0 mm 0 mps 753 mmHg 73%
    05:00 +3°C° 0 mm 0 mps 753 mmHg 75%
    06:00 +3°C° 0 mm 0 mps 753 mmHg 78%
    07:00 +6°C° 0 mm 1 mps 753 mmHg 69%
    08:00 +8°C° 0 mm 1 mps 753 mmHg 60%
    09:00 +10°C° 0 mm 1 mps 753 mmHg 51%
    10:00 +12°C° 0 mm 2 mps 753 mmHg 46%
    11:00 +12°C° 0 mm 3 mps 752 mmHg 41%
    12:00 +13°C° 0 mm 3 mps 752 mmHg 35%
    13:00 +14°C° 0 mm 4 mps 752 mmHg 34%
    14:00 +14°C° 0 mm 4 mps 751 mmHg 33%
    15:00 +14°C° 0 mm 4 mps 751 mmHg 31%
    16:00 +14°C° 0 mm 4 mps 750 mmHg 33%
    17:00 +13°C° 0 mm 4 mps 750 mmHg 34%
    18:00 +13°C° 0 mm 4 mps 750 mmHg 36%
    19:00 +11°C° 0 mm 3 mps 751 mmHg 41%
    20:00 +10°C° 0 mm 2 mps 751 mmHg 46%
    21:00 +9°C° 0 mm 1 mps 751 mmHg 51%
    22:00 +8°C° 0 mm 1 mps 751 mmHg 53%
    23:00 +8°C° 0 mm 1 mps 751 mmHg 55%
    Show more